Location: *
(46.1866°S, 178.5290°W)
Time: 19:34:52
(UTC+00:00)

Cosmos 1766 Rocket - Pass Details

Date: 19 May 2021
Orbit: 606 x 632 km, 82.5° (Epoch: 13 June)

Event Time Altitude Azimuth Distance (km) Brightness Sun altitude
Rises 05:56:53 0° 18° (NNE) 2,924 7.0 -15.2°
Reaches altitude 10° 05:59:17 10° 28° (NNE) 2,024 6.0 -15.6°
Maximum altitude 06:03:16 32° 90° (E) 1,107 4.3 -16.3°
Enters shadow 06:04:07 30° 112° (ESE) 1,165 4.4 -16.4°
